SHT2V EGLL-EGCC

Flight info

Callsign SHT2V
Flight time 0h 30m
Altitude 18000
Route ULTIB1J ULTIB T420 ELVOS ELVOS1M
Aircraft A320/M-SDE3FGIJ1KRWXY/SB1

Departure

Time 2026-05-04 12:36
Airport London Heathrow Airport (EGLL)

Arrival

Time 2026-05-04 13:06
Airport Manchester Airport (EGCC)
Time Latitude Longitude Altitude Speed Heading
2026-05-04 12:14 51.47404 -0.48891 90 ft 0 kts 179°
2026-05-04 12:23 51.47407 -0.48891 90 ft 3 kts 179°
2026-05-04 12:23 51.47433 -0.48891 89 ft 4 kts 179°
2026-05-04 12:23 51.47457 -0.48891 86 ft 2 kts 180°
2026-05-04 12:24 51.47480 -0.48896 86 ft 4 kts 150°
2026-05-04 12:24 51.47498 -0.48919 89 ft 3 kts 134°
2026-05-04 12:24 51.47509 -0.48937 90 ft 0 kts 134°
2026-05-04 12:28 51.47500 -0.48920 89 ft 9 kts 128°
2026-05-04 12:28 51.47487 -0.48726 89 ft 23 kts 90°
2026-05-04 12:29 51.47475 -0.48486 89 ft 9 kts 131°
2026-05-04 12:29 51.47351 -0.48476 86 ft 28 kts 180°
2026-05-04 12:29 51.47137 -0.48473 86 ft 30 kts 180°
2026-05-04 12:29 51.46933 -0.48473 86 ft 27 kts 180°
2026-05-04 12:30 51.46767 -0.48465 86 ft 19 kts 165°
2026-05-04 12:30 51.46745 -0.48253 87 ft 30 kts 90°
2026-05-04 12:30 51.46743 -0.47897 86 ft 30 kts 90°
2026-05-04 12:30 51.46745 -0.47585 86 ft 14 kts 90°
2026-05-04 12:31 51.46745 -0.47384 86 ft 21 kts 88°
2026-05-04 12:31 51.46747 -0.47109 90 ft 28 kts 90°
2026-05-04 12:31 51.46749 -0.46799 86 ft 28 kts 89°
2026-05-04 12:31 51.46749 -0.46455 86 ft 34 kts 90°
2026-05-04 12:32 51.46749 -0.46344 86 ft 27 kts 90°
2026-05-04 12:32 51.46747 -0.45973 89 ft 14 kts 90°
2026-05-04 12:32 51.46738 -0.45791 87 ft 11 kts 124°
2026-05-04 12:33 51.46711 -0.45777 87 ft 0 kts 185°
2026-05-04 12:33 51.46708 -0.45778 87 ft 2 kts 185°
2026-05-04 12:33 51.46674 -0.45749 90 ft 9 kts 128°
2026-05-04 12:33 51.46648 -0.45668 89 ft 5 kts 127°
2026-05-04 12:34 51.46630 -0.45656 89 ft 0 kts 171°
2026-05-04 12:34 51.46617 -0.45653 87 ft 1 kts 177°
2026-05-04 12:34 51.46566 -0.45671 88 ft 16 kts 194°
2026-05-04 12:34 51.46490 -0.45766 86 ft 0 kts 268°
2026-05-04 12:35 51.46489 -0.45838 86 ft 13 kts 269°
2026-05-04 12:35 51.46480 -0.46140 87 ft 57 kts 268°
2026-05-04 12:35 51.46486 -0.47141 91 ft 120 kts 270°
2026-05-04 12:35 51.46494 -0.48737 131 ft 162 kts 270°
2026-05-04 12:36 51.46487 -0.50423 889 ft 146 kts 271°
2026-05-04 12:36 51.46594 -0.52068 1352 ft 157 kts 294°
2026-05-04 12:36 51.47110 -0.53726 1688 ft 177 kts 302°
2026-05-04 12:36 51.47888 -0.55391 2019 ft 198 kts 324°
2026-05-04 12:37 51.49233 -0.56170 2377 ft 220 kts 356°
2026-05-04 12:37 51.50841 -0.56439 2834 ft 245 kts 353°
2026-05-04 12:37 51.52556 -0.56883 3533 ft 258 kts 350°
2026-05-04 12:37 51.54370 -0.57416 4459 ft 265 kts 349°
2026-05-04 12:38 51.56172 -0.57952 5359 ft 270 kts 349°
2026-05-04 12:38 51.58040 -0.58498 6260 ft 275 kts 348°
2026-05-04 12:38 51.59942 -0.59040 7104 ft 280 kts 348°
2026-05-04 12:38 51.61875 -0.59578 7973 ft 284 kts 348°
2026-05-04 12:39 51.63839 -0.60115 8846 ft 288 kts 348°
2026-05-04 12:39 51.65825 -0.60653 9706 ft 291 kts 348°
2026-05-04 12:39 51.67853 -0.61200 10303 ft 305 kts 348°
2026-05-04 12:39 51.70025 -0.61787 10545 ft 328 kts 349°
2026-05-04 12:40 51.72336 -0.62410 10938 ft 343 kts 349°
2026-05-04 12:40 51.74708 -0.63048 11610 ft 348 kts 349°
2026-05-04 12:40 51.77115 -0.63694 12309 ft 352 kts 349°
2026-05-04 12:40 51.79550 -0.64347 13012 ft 356 kts 349°
2026-05-04 12:41 51.82006 -0.65011 13727 ft 361 kts 349°
2026-05-04 12:41 51.84496 -0.65684 14358 ft 365 kts 349°
2026-05-04 12:41 51.87012 -0.66365 14970 ft 368 kts 349°
2026-05-04 12:41 51.89554 -0.67057 15582 ft 372 kts 349°
2026-05-04 12:42 51.92114 -0.67757 16192 ft 375 kts 349°
2026-05-04 12:42 51.94703 -0.68469 16794 ft 379 kts 349°
2026-05-04 12:42 51.97281 -0.69173 17391 ft 382 kts 349°
2026-05-04 12:42 51.99921 -0.69893 17902 ft 386 kts 349°
2026-05-04 12:43 52.02578 -0.70621 18031 ft 392 kts 349°
2026-05-04 12:43 52.05306 -0.71370 18059 ft 402 kts 349°
2026-05-04 12:43 52.08069 -0.72129 18056 ft 403 kts 349°
2026-05-04 12:43 52.10826 -0.72951 18055 ft 403 kts 345°
2026-05-04 12:44 52.13482 -0.74386 18053 ft 402 kts 335°
2026-05-04 12:44 52.15940 -0.76516 18052 ft 401 kts 327°
2026-05-04 12:44 52.18320 -0.78874 18055 ft 401 kts 327°
2026-05-04 12:44 52.20706 -0.81242 18054 ft 401 kts 327°
2026-05-04 12:45 52.23106 -0.83625 18061 ft 412 kts 327°
2026-05-04 12:45 52.25611 -0.86114 18056 ft 430 kts 327°
2026-05-04 12:45 52.28210 -0.88695 18058 ft 445 kts 327°
2026-05-04 12:45 52.30884 -0.91354 18060 ft 452 kts 327°
2026-05-04 12:46 52.33570 -0.94026 18069 ft 453 kts 327°
2026-05-04 12:46 52.36263 -0.96707 18064 ft 453 kts 327°
2026-05-04 12:46 52.38958 -0.99396 18073 ft 453 kts 327°
2026-05-04 12:46 52.41650 -1.02084 18065 ft 453 kts 328°
2026-05-04 12:47 52.44342 -1.04776 18051 ft 453 kts 328°
2026-05-04 12:47 52.47030 -1.07471 18053 ft 453 kts 327°
2026-05-04 12:47 52.49717 -1.10168 18048 ft 453 kts 327°
2026-05-04 12:47 52.52404 -1.12870 18040 ft 453 kts 327°
2026-05-04 12:48 52.55087 -1.15573 18038 ft 452 kts 327°
2026-05-04 12:48 52.57773 -1.18284 18033 ft 452 kts 327°
2026-05-04 12:48 52.60412 -1.20948 18026 ft 452 kts 327°
2026-05-04 12:48 52.63088 -1.23653 18019 ft 451 kts 327°
2026-05-04 12:49 52.65763 -1.26362 18013 ft 451 kts 327°
2026-05-04 12:49 52.68440 -1.29074 18013 ft 451 kts 327°
2026-05-04 12:49 52.71114 -1.31788 18013 ft 451 kts 327°
2026-05-04 12:49 52.73781 -1.34500 18067 ft 451 kts 327°
2026-05-04 12:50 52.76451 -1.37219 18074 ft 451 kts 327°
2026-05-04 12:50 52.79120 -1.39942 18076 ft 451 kts 327°
2026-05-04 12:50 52.81788 -1.42667 18077 ft 450 kts 327°
2026-05-04 12:50 52.84445 -1.45386 18075 ft 450 kts 327°
2026-05-04 12:51 52.87098 -1.48104 18075 ft 449 kts 327°
2026-05-04 12:51 52.89747 -1.50827 18070 ft 449 kts 327°
2026-05-04 12:51 52.92373 -1.53528 18060 ft 434 kts 327°
2026-05-04 12:51 52.94874 -1.56105 17922 ft 413 kts 327°
2026-05-04 12:52 52.97265 -1.58575 17794 ft 396 kts 327°
2026-05-04 12:52 52.99549 -1.60940 17655 ft 380 kts 327°
2026-05-04 12:52 53.01744 -1.63215 17495 ft 366 kts 327°
2026-05-04 12:52 53.03883 -1.65433 17101 ft 359 kts 326°
2026-05-04 12:53 53.05840 -1.67963 16655 ft 353 kts 314°
2026-05-04 12:53 53.07432 -1.70962 16511 ft 340 kts 309°
2026-05-04 12:53 53.08945 -1.73898 16378 ft 328 kts 309°
2026-05-04 12:53 53.10412 -1.76729 16227 ft 319 kts 309°
2026-05-04 12:54 53.11850 -1.79498 15939 ft 314 kts 309°
2026-05-04 12:54 53.13269 -1.82243 15620 ft 312 kts 309°
2026-05-04 12:54 53.14680 -1.84980 15281 ft 310 kts 309°
2026-05-04 12:54 53.16082 -1.87709 14947 ft 309 kts 309°
2026-05-04 12:55 53.17474 -1.90422 14622 ft 307 kts 309°
2026-05-04 12:55 53.18854 -1.93120 14310 ft 305 kts 309°
2026-05-04 12:55 53.20231 -1.95812 13978 ft 304 kts 309°
2026-05-04 12:55 53.21588 -1.98462 13808 ft 297 kts 309°
2026-05-04 12:56 53.22838 -2.01127 13666 ft 287 kts 299°
2026-05-04 12:56 53.23575 -2.04137 13516 ft 277 kts 282°
2026-05-04 12:56 53.23730 -2.07313 13222 ft 274 kts 266°
2026-05-04 12:56 53.23608 -2.10491 12897 ft 274 kts 266°
2026-05-04 12:57 53.23487 -2.13658 12592 ft 273 kts 266°
2026-05-04 12:57 53.23367 -2.16812 12290 ft 272 kts 266°
2026-05-04 12:57 53.23250 -2.19951 12003 ft 270 kts 266°
2026-05-04 12:57 53.23137 -2.23029 11723 ft 269 kts 266°
2026-05-04 12:58 53.23020 -2.26136 11423 ft 268 kts 265°
2026-05-04 12:58 53.22645 -2.29234 10591 ft 280 kts 252°
2026-05-04 12:58 53.21879 -2.32299 9492 ft 294 kts 240°
2026-05-04 12:58 53.20777 -2.35266 8259 ft 308 kts 237°
2026-05-04 12:59 53.19593 -2.38322 7029 ft 320 kts 237°
2026-05-04 12:59 53.18399 -2.41399 6441 ft 309 kts 237°
2026-05-04 12:59 53.17273 -2.44299 6213 ft 287 kts 237°
2026-05-04 12:59 53.16231 -2.46977 6056 ft 266 kts 237°
2026-05-04 13:00 53.15249 -2.49563 5525 ft 261 kts 243°
2026-05-04 13:00 53.14704 -2.52399 5016 ft 256 kts 264°
2026-05-04 13:00 53.14926 -2.55269 4487 ft 250 kts 295°
2026-05-04 13:00 53.15997 -2.57480 3976 ft 246 kts 327°
2026-05-04 13:01 53.17581 -2.58419 3473 ft 246 kts 357°
2026-05-04 13:01 53.19285 -2.57986 3044 ft 250 kts 21°
2026-05-04 13:01 53.20727 -2.56522 2996 ft 237 kts 43°
2026-05-04 13:01 53.21777 -2.54529 3015 ft 220 kts 51°
2026-05-04 13:02 53.22725 -2.52590 3023 ft 213 kts 51°
2026-05-04 13:02 53.23626 -2.50748 3001 ft 195 kts 51°
2026-05-04 13:02 53.24450 -2.49061 2917 ft 183 kts 51°
2026-05-04 13:02 53.25241 -2.47438 2719 ft 178 kts 51°
2026-05-04 13:03 53.26017 -2.45847 2494 ft 176 kts 51°
2026-05-04 13:03 53.26780 -2.44281 2269 ft 168 kts 51°
2026-05-04 13:03 53.27472 -2.42860 2049 ft 150 kts 51°
2026-05-04 13:03 53.28113 -2.41543 1845 ft 143 kts 51°
2026-05-04 13:04 53.28735 -2.40264 1656 ft 141 kts 51°
2026-05-04 13:04 53.29350 -2.38998 1465 ft 140 kts 51°
2026-05-04 13:04 53.29961 -2.37740 1265 ft 139 kts 51°
2026-05-04 13:04 53.30571 -2.36485 1067 ft 139 kts 51°
2026-05-04 13:05 53.31177 -2.35235 860 ft 138 kts 51°
2026-05-04 13:05 53.31782 -2.33987 683 ft 138 kts 51°
2026-05-04 13:05 53.32385 -2.32745 512 ft 137 kts 51°
2026-05-04 13:05 53.32988 -2.31510 307 ft 137 kts 51°
2026-05-04 13:06 53.33568 -2.30299 200 ft 122 kts 52°
2026-05-04 13:06 53.33984 -2.29438 217 ft 88 kts 51°
2026-05-04 13:06 53.34338 -2.28719 213 ft 63 kts 45°
2026-05-04 13:06 53.34600 -2.28478 227 ft 28 kts 19°
2026-05-04 13:07 53.34748 -2.28322 233 ft 26 kts 50°
2026-05-04 13:07 53.34868 -2.28075 238 ft 29 kts 51°
2026-05-04 13:07 53.35002 -2.27803 239 ft 32 kts 51°
2026-05-04 13:07 53.35146 -2.27499 246 ft 34 kts 51°
2026-05-04 13:08 53.35290 -2.27218 253 ft 23 kts 37°
2026-05-04 13:08 53.35348 -2.27197 257 ft 1 kts
2026-05-04 13:08 53.35352 -2.27196 257 ft 0 kts
2026-05-04 13:08 53.35354 -2.27196 258 ft 0 kts
2026-05-04 13:09 53.35378 -2.27202 259 ft 11 kts 342°
2026-05-04 13:09 53.35478 -2.27331 262 ft 23 kts 321°
2026-05-04 13:09 53.35598 -2.27490 253 ft 24 kts 321°
2026-05-04 13:09 53.35764 -2.27664 247 ft 27 kts 334°
2026-05-04 13:10 53.35912 -2.27843 247 ft 26 kts
2026-05-04 13:10 53.36026 -2.27936 247 ft 19 kts 317°
2026-05-04 13:10 53.36129 -2.28106 247 ft 22 kts 315°
2026-05-04 13:10 53.36243 -2.28300 247 ft 25 kts 315°
2026-05-04 13:11 53.36382 -2.28481 247 ft 26 kts 348°
2026-05-04 13:11 53.36525 -2.28664 247 ft 27 kts 315°
2026-05-04 13:11 53.36629 -2.28883 247 ft 21 kts 323°
2026-05-04 13:11 53.36735 -2.29022 247 ft 20 kts 319°
2026-05-04 13:12 53.36848 -2.28974 247 ft 18 kts 38°
2026-05-04 13:12 53.36910 -2.28868 247 ft 7 kts 46°
2026-05-04 13:12 53.36916 -2.28856 247 ft 2 kts 51°
2026-05-04 13:12 53.36913 -2.28824 247 ft 3 kts 135°
2026-05-04 13:13 53.36892 -2.28791 247 ft 2 kts 133°
2026-05-04 13:13 53.36891 -2.28788 247 ft 0 kts 134°